TimeMST,TemperatureF,Dew PointF,Humidity,Sea Level PressureIn,VisibilityMPH,Wind Direction,Wind SpeedMPH,Gust SpeedMPH,PrecipitationIn,Events,Conditions,WindDirDegrees,DateUTC
12:15 AM,71.6,35.6,27,30.00,10.0,Calm,Calm,-,N/A,,Clear,0,2013-03-15 07:15:00
12:55 AM,68.0,35.6,30,30.00,10.0,Calm,Calm,-,N/A,,Clear,0,2013-03-15 07:55:00
1:15 AM,68.0,35.6,30,29.99,10.0,Calm,Calm,-,N/A,,Clear,0,2013-03-15 08:15:00
1:35 AM,64.4,37.4,37,29.99,10.0,Calm,Calm,-,N/A,,Clear,0,2013-03-15 08:35:00
1:55 AM,64.4,35.6,34,29.99,10.0,Calm,Calm,-,N/A,,Clear,0,2013-03-15 08:55:00
2:15 AM,64.4,37.4,37,29.99,10.0,East,5.8,-,N/A,,Clear,80,2013-03-15 09:15:00
2:35 AM,64.4,35.6,34,29.98,10.0,East,3.5,-,N/A,,Clear,100,2013-03-15 09:35:00
2:55 AM,62.6,37.4,39,29.97,10.0,NNW,5.8,-,N/A,,Clear,330,2013-03-15 09:55:00
3:15 AM,62.6,37.4,39,29.97,10.0,East,3.5,-,N/A,,Clear,90,2013-03-15 10:15:00
3:35 AM,60.8,35.6,39,29.96,10.0,Calm,Calm,-,N/A,,Clear,0,2013-03-15 10:35:00
3:55 AM,60.8,35.6,39,29.96,10.0,Calm,Calm,-,N/A,,Clear,0,2013-03-15 10:55:00
4:15 AM,59.0,37.4,45,29.96,10.0,Calm,Calm,-,N/A,,Clear,0,2013-03-15 11:15:00
4:35 AM,60.8,35.6,39,29.96,10.0,ESE,5.8,-,N/A,,Clear,110,2013-03-15 11:35:00
4:55 AM,62.6,35.6,37,29.96,10.0,NNE,3.5,-,N/A,,Clear,20,2013-03-15 11:55:00
5:15 AM,59.0,37.4,45,29.97,10.0,NNE,4.6,-,N/A,,Clear,30,2013-03-15 12:15:00
5:35 AM,59.0,35.6,42,29.97,10.0,NE,3.5,-,N/A,,Clear,40,2013-03-15 12:35:00
5:55 AM,59.0,37.4,45,29.97,10.0,Calm,Calm,-,N/A,,Clear,0,2013-03-15 12:55:00
6:15 AM,59.0,37.4,45,29.97,10.0,Calm,Calm,-,N/A,,Clear,0,2013-03-15 13:15:00
6:35 AM,57.2,35.6,44,29.98,10.0,Calm,Calm,-,N/A,,Clear,0,2013-03-15 13:35:00
6:55 AM,57.2,35.6,44,29.98,10.0,Calm,Calm,-,N/A,,Clear,0,2013-03-15 13:55:00
7:15 AM,57.2,37.4,48,29.99,10.0,Calm,Calm,-,N/A,,Clear,0,2013-03-15 14:15:00
7:35 AM,57.2,37.4,48,29.99,10.0,SE,3.5,-,N/A,,Clear,140,2013-03-15 14:35:00
7:55 AM,60.8,39.2,45,30.00,10.0,Calm,Calm,-,N/A,,Clear,0,2013-03-15 14:55:00
8:15 AM,59.0,39.2,48,30.00,10.0,Calm,Calm,-,N/A,,Clear,0,2013-03-15 15:15:00
8:35 AM,62.6,39.2,42,30.01,10.0,Calm,Calm,-,N/A,,Clear,0,2013-03-15 15:35:00
8:55 AM,64.4,39.2,40,30.01,10.0,Calm,Calm,-,N/A,,Clear,0,2013-03-15 15:55:00
9:15 AM,66.2,35.6,32,30.01,10.0,Calm,Calm,-,N/A,,Clear,0,2013-03-15 16:15:00
9:35 AM,66.2,37.4,35,30.01,10.0,Calm,Calm,-,N/A,,Clear,0,2013-03-15 16:35:00
9:55 AM,66.2,33.8,30,30.02,10.0,Calm,Calm,-,N/A,,Clear,0,2013-03-15 16:55:00
10:15 AM,68.0,35.6,30,30.02,10.0,Calm,Calm,-,N/A,,Clear,0,2013-03-15 17:15:00
10:35 AM,71.6,33.8,25,30.02,10.0,Calm,Calm,-,N/A,,Clear,0,2013-03-15 17:35:00
10:55 AM,73.4,33.8,23,30.01,10.0,Calm,Calm,-,N/A,,Clear,0,2013-03-15 17:55:00
11:15 AM,73.4,32.0,22,29.99,10.0,Calm,Calm,-,N/A,Thunderstorm,Clear,0,2013-03-15 18:15:00
11:35 AM,75.2,32.0,21,29.99,10.0,Calm,Calm,-,N/A,,Clear,0,2013-03-15 18:35:00
11:55 AM,75.2,32.0,21,29.98,10.0,Calm,Calm,-,N/A,,Clear,0,2013-03-15 18:55:00
12:15 PM,78.8,32.0,18,29.98,10.0,NNW,3.5,-,N/A,,Clear,330,2013-03-15 19:15:00
12:35 PM,80.6,32.0,17,29.97,10.0,Calm,Calm,-,N/A,,Clear,0,2013-03-15 19:35:00
12:55 PM,80.6,33.8,18,29.96,10.0,Calm,Calm,-,N/A,,Clear,0,2013-03-15 19:55:00
1:15 PM,82.4,33.8,17,29.94,10.0,Calm,Calm,-,N/A,,Clear,0,2013-03-15 20:15:00
1:35 PM,82.4,33.8,17,29.93,10.0,Calm,Calm,-,N/A,,Clear,0,2013-03-15 20:35:00
2:15 PM,86.0,32.0,14,29.90,10.0,SW,5.8,-,N/A,,Clear,230,2013-03-15 21:15:00
2:35 PM,86.0,32.0,14,29.89,10.0,SW,8.1,-,N/A,,Clear,220,2013-03-15 21:35:00
2:55 PM,87.8,32.0,14,29.88,10.0,WSW,9.2,-,N/A,,Clear,240,2013-03-15 21:55:00
3:15 PM,89.6,32.0,13,29.87,10.0,SW,6.9,-,N/A,,Clear,220,2013-03-15 22:15:00
3:35 PM,89.6,32.0,13,29.86,10.0,SW,9.2,-,N/A,,Clear,220,2013-03-15 22:35:00
3:55 PM,89.6,32.0,13,29.85,10.0,SW,8.1,-,N/A,,Clear,220,2013-03-15 22:55:00
4:15 PM,91.4,32.0,12,29.84,10.0,SW,8.1,-,N/A,,Clear,220,2013-03-15 23:15:00
4:35 PM,91.4,28.4,10,29.83,10.0,SSW,11.5,-,N/A,,Clear,200,2013-03-15 23:35:00
4:55 PM,91.4,26.6,10,29.82,10.0,South,12.7,17.3,N/A,,Clear,170,2013-03-15 23:55:00
5:15 PM,91.4,26.6,10,29.81,10.0,SSE,13.8,-,N/A,,Clear,150,2013-03-16 00:15:00
5:35 PM,89.6,28.4,11,29.81,10.0,South,12.7,-,N/A,,Clear,170,2013-03-16 00:35:00
5:55 PM,89.6,28.4,11,29.80,10.0,SSE,16.1,-,N/A,,Clear,150,2013-03-16 00:55:00
6:15 PM,89.6,28.4,11,29.80,10.0,SSE,15.0,-,N/A,,Clear,150,2013-03-16 01:15:00
6:35 PM,87.8,28.4,12,29.80,10.0,SSE,13.8,-,N/A,,Clear,150,2013-03-16 01:35:00
6:55 PM,86.0,28.4,12,29.80,10.0,SSE,13.8,-,N/A,,Clear,150,2013-03-16 01:55:00
7:15 PM,86.0,28.4,12,29.80,10.0,SE,16.1,-,N/A,,Clear,140,2013-03-16 02:15:00
7:35 PM,84.2,28.4,13,29.81,10.0,SE,13.8,-,N/A,,Clear,140,2013-03-16 02:35:00
7:55 PM,82.4,30.2,15,29.82,10.0,SW,3.5,-,N/A,,Clear,230,2013-03-16 02:55:00
8:15 PM,82.4,30.2,15,29.82,10.0,Calm,Calm,-,N/A,,Clear,0,2013-03-16 03:15:00
8:35 PM,78.8,32.0,18,29.82,10.0,Calm,Calm,-,N/A,,Clear,0,2013-03-16 03:35:00
8:55 PM,78.8,32.0,18,29.82,10.0,North,3.5,-,N/A,,Clear,360,2013-03-16 03:55:00
9:15 PM,78.8,30.2,17,29.82,10.0,Calm,Calm,-,N/A,,Clear,0,2013-03-16 04:15:00
9:35 PM,77.0,32.0,19,29.83,10.0,Calm,Calm,-,N/A,,Clear,0,2013-03-16 04:35:00
9:55 PM,73.4,32.0,22,29.83,10.0,East,3.5,-,N/A,,Clear,100,2013-03-16 04:55:00
10:15 PM,71.6,32.0,23,29.83,10.0,Calm,Calm,-,N/A,,Clear,0,2013-03-16 05:15:00
10:35 PM,71.6,32.0,23,29.83,10.0,East,4.6,-,N/A,,Clear,100,2013-03-16 05:35:00
10:55 PM,71.6,32.0,23,29.82,10.0,ESE,4.6,-,N/A,,Clear,120,2013-03-16 05:55:00
11:15 PM,71.6,32.0,23,29.82,10.0,SE,3.5,-,N/A,,Clear,140,2013-03-16 06:15:00
11:55 PM,69.8,32.0,25,29.81,10.0,East,4.6,-,N/A,,Clear,100,2013-03-16 06:55:00